Regional Weather Roundup
Issued by NWS Midland/Odessa, TX

Skip options and go directly to product.
Home | Oldest Version | Next Version | Current Version | All | Text Only | Save Text | Print | Product List | Glossary On

Skip product version selection by date and time.   
908
ASUS44 KMAF 260001
RWRMAF
MIDLAND AREA WEATHER ROUNDUP
NATIONAL WEATHER SERVICE MIDLAND TX
600 PM CST WED FEB 25 2015

...IN SOUTHWEST TEXAS AND SOUTHEAST NEW MEXICO...

CITY           SKY/WX    TMP DP  RH WIND       PRES   REMARKS
ALPINE         CLEAR     60  23  24 W13G20    29.92R
ANDREWS        FAIR      64  24  21 NW8       29.77S
ARTESIA        CLEAR     66  27  22 NW12      29.78R
BIG SPRING     CLEAR     64  28  25 SW13      29.80R
CARLSBAD       CLEAR     65  31  28 SW12      29.77F
DRYDEN           N/A     70  24  17 SW18G24   29.76S
FORT STOCKTON  CLEAR     64  26  23 NW16G26   29.81R
GUAD PASS      NOT AVBL
HOBBS          CLEAR     63  21  20 NW9       29.78S
MARFA          SUNNY     57  21  24 W17       29.91S
MIDLAND AIRPK  CLEAR     64  30  27 SW9       29.78S
MIDLAND INTL   CLEAR     63  30  28 SW12      29.78S
ODESSA         CLEAR     62  27  26 W10       29.79S
PECOS          CLEAR     65  30  27 W14       29.80S
PRESIDIO       FAIR      68  24  19 NW10G18   29.84F
SEMINOLE       CLEAR     64  18  17 N8        29.78R
SNYDER         CLEAR     63  26  24 NW6       29.77S
WINK           CLEAR     64  29  26 W9        29.77F
$$
...OTHER STATIONS IN TEXAS...

CITY           SKY/WX    TMP DP  RH WIND       PRES   REMARKS
ABILENE        CLEAR     61  29  29 NW5       29.78S
AMARILLO       CLOUDY    49  34  56 N17G26    29.85R
AUSTIN         PTCLDY    59  31  34 N7        29.81R
BROWNSVILLE    CLEAR     64  40  41 N5        29.84S
CORPUS CHRISTI MOCLDY    62  35  36 N10       29.82S
DALLAS FTW     CLEAR     49  36  61 E5        29.80S
DEL RIO        CLEAR     71  29  21 NW6       29.77F
EL PASO        MOSUNNY   63  24  22 W8        29.87F
HOUSTON INT    PTCLDY    47  36  65 N9        29.86R
LUBBOCK        PTCLDY    59  22  24 NE17      29.80R
SAN ANGELO     CLEAR     64  29  26 W10       29.78S
SAN ANTONIO    PTCLDY    65  26  23 N7        29.81S
WACO           CLEAR     47  38  71 SE7       29.83S
WICHITA FALLS  NOT AVBL
$$
...OTHER LOCATIONS IN NEW MEXICO...

CITY           SKY/WX    TMP DP  RH WIND       PRES   REMARKS
ALAMAGORDO     SUNNY     59  23  25 NE9       29.88F
ALBUQUERQUE    PTSUNNY   53  14  21 NW22G35   29.91R
CANNON AFB     PTCLDY    53  26  35 NE14      29.82R
CLOVIS         CLEAR     52  27  37 NE16      29.83R
HOLLOMAN AFB   SUNNY     59  22  24 N5        29.86F
ROSWELL        CLEAR     65  22  19 NW21G29   29.76S
RUIDOSO        SUNNY     48  19  32 NW10G20   29.92R
SANTA FE       MOSUNNY   45  23  42 N12       29.86R WCI  39
TRUTH OR CONSE SUNNY     61  23  23 N12G22    29.87S
TUCUMCARI      CLOUDY    51  28  41 NE17G26   29.84R
$$

USA.gov is the U.S. government's official web portal to all federal, state and local government web resources and services.